Regional Weather Roundup
Issued by NWS

Home | Current Version | Previous Version | Text Only | Print | Product List | Glossary Off
Versions: 1 2 3 4 5 6 7 8 9 10 11 12 13 14 15 16 17 18 19 20 21 22 23 24 25 26 27 28 29 30 31 32 33 34 35 36 37 38 39 40 41 42 43 44 45 46 47 48 49 50

000
ASUS43 KMKX 240321
RWRWI

WISCONSIN REGIONAL WEATHER ROUNDUP
NATIONAL WEATHER SERVICE MILWAUKEE/SULLIVAN WI
1000 PM CDT TUE MAY 23 2017

NOTE: "FAIR" INDICATES FEW OR NO CLOUDS BELOW 12,000 FEET WITH NO
SIGNIFICANT WEATHER AND/OR OBSTRUCTIONS TO VISIBILITY.

WIZ001-002-006>008-014>016-023>028-240400-
NORTHWEST WISCONSIN

CITY           SKY/WX    TMP DP  RH WIND       PRES   REMARKS
SUPERIOR ARPT  NOT AVBL
ASHLAND        CLOUDY    45  43  93 N7        29.89S
HAYWARD        CLOUDY    46  42  86 NE7       29.86S
SIREN          MOCLDY    49  43  78 NE12G17   29.87R
CUMBERLAND     MOCLDY    46  43  87 N9        29.84S
RICE LAKE      CLOUDY    50  45  80 N13       29.85R
CHETEK         CLOUDY    52  44  74 N6G17     29.82S
LADYSMITH      CLOUDY    50  45  80 N9        29.84R
EAU CLAIRE     CLOUDY    54  45  71 NE10      29.78R
MENOMONIE      CLOUDY    54  46  72 N10G17    29.80R
NEW RICHMOND   MOCLDY    52  44  73 N8        29.83R
OSCEOLA        PTCLDY    52  45  75 N5        29.87R
$$

WIZ003>005-009-010-017-018-240400-
NORTH CENTRAL WISCONSIN

CITY           SKY/WX    TMP DP  RH WIND       PRES   REMARKS
MANITOWISH WTR CLOUDY    47  47  99 N3        29.83S
ARBOR VITAE    CLOUDY    52  47  83 NE6       29.81F
WOODRUFF       CLOUDY    52  47  83 NE6       29.81F
RHINELANDER    CLOUDY    51  45  79 VRB6      29.81S
EAGLE RIVER    CLOUDY    49  42  77 NE10      29.82S
LAND O LAKES   CLOUDY    47  43  85 N10       29.84S
PHILLIPS       CLOUDY    50  43  76 NE9       29.81S
TOMAHAWK       CLOUDY    50  43  77 N6        29.81S
MEDFORD        DRIZZLE   50  45  81 NE8       29.78S
MERRILL        DRIZZLE   53  48  83 NE5       29.79S
$$

WIZ029-030-035-036-043>047-240400-
CENTRAL WISCONSIN

CITY           SKY/WX    TMP DP  RH WIND       PRES   REMARKS
WAUSAU         LGT RAIN  51  48  89 CALM      29.77R
MOSINEE        LGT RAIN  50  46  87 CALM      29.79S
MARSHFIELD     CLOUDY    52  43  71 E8        29.77R
STEVENS POINT  LGT RAIN  48  46  90 NE7       29.78F
WAUPACA        LGT RAIN  51  49  92 N3        29.77R
WAUTOMA        LGT RAIN  48  46  93 NE10      29.75F
WISC RAPIDS    LGT RAIN  50  47  89 NE7       29.78S
CAMP DOUGLAS   CLOUDY    50  48  93 NE7       29.75S
$$

WIZ011>013-019>022-031-037>040-048>050-240400-
NORTHEAST WISCONSIN

CITY           SKY/WX    TMP DP  RH WIND       PRES   REMARKS
ANTIGO         CLOUDY    50  45  84 E3        29.79S
SHAWANO        RAIN      53  50  89 NE5       29.78F
OCONTO         CLOUDY    50  49  96 CALM      29.79S
STURGEON BAY   LGT RAIN  50  49  96 N8          N/A
GREEN BAY      LGT RAIN  51  50  96 NE12      29.77R
MANITOWOC      LGT RAIN  49  47  93 NE7       29.75F
APPLETON       LGT RAIN  48  48 100 NE9       29.74F
CLINTONVILLE   LGT RAIN  48  46  93 NE6       29.77F
OSHKOSH        LGT RAIN  50  47  89 NE9       29.74S
$$

WIZ032>034-041-042-053>061-240400-
SOUTHWEST WISCONSIN

CITY           SKY/WX    TMP DP  RH WIND       PRES   REMARKS
LA CROSSE      LGT RAIN  55  52  89 N6        29.74S
SPARTA         LGT RAIN  50  49  99 NE5       29.76S
VIROQUA        CLOUDY    51  50  97 MISG      29.73S
BOSCOBEL       CLOUDY    54  52  93 CALM      29.72S
PRAIRIE DU CHI CLOUDY    55  51  83 N5        29.71S
PLATTEVILLE    CLOUDY    54  53  97 NW3       29.70S
$$

WIZ056-057-062-063-064-067-068-240400-
SOUTH CENTRAL WISCONSIN

CITY           SKY/WX    TMP DP  RH WIND       PRES   REMARKS
REEDSBURG      DRIZZLE   50  50 100 NE8       29.73S
BARABOO/DELLS  CLOUDY    50  48  93 NE5       29.73F
LONE ROCK      CLOUDY    53  49  86 CALM      29.71S
MINERAL POINT  MOCLDY    54  54 100 NE3       29.71R
MADISON        CLOUDY    55  53  93 NE9       29.71R
MIDDLETON      CLOUDY    55  55 100 E8        29.71S
WATERTOWN      CLOUDY    52  52 100 NE5       29.70F
MONROE         CLEAR     52  52 100 SE3       29.69F
JANESVILLE     FOG       52  52 100 CALM      29.70S VSB 3/4
$$

WIZ051-052-058>065-066-070>072-240400-
SOUTHEAST WISCONSIN

CITY           SKY/WX    TMP DP  RH WIND       PRES   REMARKS
MILWAUKEE      LGT RAIN  48  47  96 N7        29.72S FOG
WAUKESHA       NOT AVBL
MILWAUKEE/TIMM   N/A     46  45  93 NE6       29.73S FOG
RACINE         CLOUDY    49  47  93 NE7       29.73S FOG
KENOSHA        CLOUDY    54  53  97 E3        29.70F
FOND DU LAC    LGT RAIN  50  46  86 NE7       29.74S
SHEBOYGAN      LGT RAIN  48  48 100 NE10      29.73F
WEST BEND      DRIZZLE   46  46 100 NE8       29.73S
JUNEAU         CLOUDY    50  48  95 NE9       29.73S
$$

LSZ147-162-240400-
LAKE SUPERIOR

STATION/POSITION TIME  TEMP    WIND        PRES    WAVE
                       AIR SEA DIR/SP/G            HT/PER
                 (UTC) (F)     (DEG/KT/KT) (MB)    (FT/S)
W MID LAKE BUOY  0250   40 37  350/  6/  8 1012.7F   0
DEVILS ISLAND    0300   43     360/ 11/ 11 1012.9F
PORT WING        0140   41      20/  9/ 10 1012.5S
SAXON HARBOR     0240   42     350/  4/  6 1011.9R
$$

LMZ867-665-643>646-240400-
LAKE MICHIGAN

STATION/POSITION TIME  TEMP    WIND        PRES    WAVE
                       AIR SEA DIR/SP/G            HT/PER
                 (UTC) (F)     (DEG/KT/KT) (MB)    (FT/S)
CHAMBERS ISLAND  0240   49     360/ 11/ 14 1008.5R
N MID LAKE BUOY  0150   43 39   40/  8/  8 1009.1S   0
NORTHPORT PIER   0240   48     340/  8/ 11 1008.8R
KEWAUNEE LAKESHO 0254   50     360/  7/ 12 1007.5F
SHEBOYGAN LAKESH 0300   46      10/ 14/ 16 1007.0F
PORT WASHINGTON  0240   48      30/  2/  6 1007.8S
ATWATER BUOY     0109   46      30/ 12/ 16 1006.9R
MILWAUKEE LAKESH 0300   45      10/  9/ 10   N/A
S MID LAKE BUOY  0250   50 45  110/  2/  2 1006.6S   0
KENOSHA   LAKESH 0300   54      90/  2/  3 1006.1
$$

TC  - TEMPERATURE IN CELSIUS
VSB - VISIBILITY IN STATUTE MILES
WCI - WIND CHILL INDEX
HX  - HEAT INDEX




USA.gov is the U.S. government's official web portal to all federal, state and local government web resources and services.